"TOA5","MOW","CPU:UNC_MeetingWaters","DataHourly"
"TIMESTAMP","SondeTempC","SpCond","DOSat","DOmg","pH","Turb","BattVolt_Min"
"TS","","","","","","",""
"","Smp","Smp","Smp","Smp","Smp","Smp","Min"
"2003-08-01 00:00:00",23.0200004578,0.358000010252,85.0999984741,7.28999996185,7.57999992371,3.90000009537,12.5500001907
"2003-08-01 01:00:00",22.9300003052,0.347000002861,88.0,7.55000019073,7.55999994278,3.59999990463,12.529999733
"2003-08-01 02:00:00",22.8600006104,0.331999987364,88.4000015259,7.59000015259,7.55000019073,3.09999990463,12.5200004578
"2003-08-01 03:00:00",22.8199996948,0.319999992847,85.6999969482,7.36999988556,7.53000020981,2.90000009537,12.5
"2003-08-01 04:00:00",22.7700004578,0.324000000954,86.6999969482,7.46999979019,7.51000022888,2.59999990463,12.4899997711
"2003-08-01 05:00:00",22.7299995422,0.356000006199,86.8000030518,7.48000001907,7.53999996185,2.70000004768,12.4799995422
"2003-08-01 06:00:00",22.6900005341,0.384000003338,86.5,7.46000003815,7.55999994278,2.90000009537,12.470000267
"2003-08-01 07:00:00",22.6399993896,0.416000008583,88.5999984741,7.65000009537,7.59000015259,3.09999990463,12.4600000381
"2003-08-01 08:00:00",22.6200008392,0.391000002623,88.5,7.63999986649,7.63000011444,2.79999995232,12.4399995804
"2003-08-01 09:00:00",22.6399993896,0.363999992609,90.0,7.76999998093,7.63000011444,3.0,12.5500001907
"2003-08-01 10:00:00",22.7600002289,0.356000006199,92.8000030518,7.98999977112,7.63999986649,2.70000004768,12.7899999619
"2003-08-01 11:00:00",22.9599990845,0.361999988556,98.5999984741,8.46000003815,7.67000007629,2.70000004768,13.0399999619
"2003-08-01 12:00:00",23.2800006866,0.384999990463,105.400001526,8.97999954224,7.73000001907,2.70000004768,13.0500001907
"2003-08-01 13:00:00",23.5599994659,0.386000007391,103.699996948,8.78999996185,7.78000020981,2.70000004768,13.029999733
"2003-08-01 14:00:00",24.1399993896,0.386999994516,110.599998474,9.27999973297,7.82999992371,2.5,12.8299999237
"2003-08-01 15:00:00",24.3899993896,0.386000007391,103.300003052,8.61999988556,7.86999988556,2.59999990463,12.9799995422
"2003-08-01 16:00:00",24.4799995422,0.361999988556,99.3000030518,8.27999973297,7.84000015259,2.70000004768,12.7600002289
"2003-08-01 17:00:00",24.1200008392,0.347999989986,96.3000030518,8.07999992371,7.80999994278,9.0,12.6599998474
"2003-08-01 18:00:00",25.7199993134,0.0790000036359,92.6999969482,7.55999994278,7.80000019073,347.600006104,12.6099996567
"2003-08-01 19:00:00",25.25,0.0989999994636,87.0,7.15999984741,7.46000003815,217.699996948,12.5799999237
"2003-08-01 20:00:00",24.8299999237,0.118000000715,85.4000015259,7.07999992371,7.23000001907,137.300003052,12.5699996948
"2003-08-01 21:00:00",24.4500007629,0.142000004649,84.3000030518,7.03999996185,7.13999986649,110.800003052,12.5500001907
"2003-08-01 22:00:00",23.9699993134,0.193000003695,90.0999984741,7.57999992371,7.21999979019,82.0,12.5500001907
"2003-08-01 23:00:00",23.9599990845,0.16099999845,88.9000015259,7.48999977112,7.25,41.2000007629,12.5399999619
"2003-08-02 00:00:00",23.9799995422,0.123000003397,88.4000015259,7.44999980927,7.17999982834,42.4000015259,12.529999733
"2003-08-02 01:00:00",23.8500003815,0.125,86.5,7.30000019073,7.17000007629,29.8999996185,12.5200004578
"2003-08-02 02:00:00",23.6900005341,0.131999999285,84.1999969482,7.13000011444,7.17000007629,24.3999996185,12.5100002289
"2003-08-02 03:00:00",23.5200004578,0.145999997854,85.0999984741,7.23000001907,7.17000007629,20.6000003815,12.4899997711
"2003-08-02 04:00:00",23.3400001526,0.163000002503,84.8000030518,7.23000001907,7.19999980927,19.7000007629,12.4799995422
"2003-08-02 05:00:00",23.2099990845,0.184000000358,85.4000015259,7.28999996185,7.23999977112,17.3999996185,12.470000267
"2003-08-02 06:00:00",23.1100006104,0.209000006318,85.9000015259,7.34999990463,7.26999998093,15.6999998093,12.4499998093
"2003-08-02 07:00:00",23.0200004578,0.228000000119,87.0999984741,7.46000003815,7.32999992371,13.1000003815,12.4399995804
"2003-08-02 08:00:00",22.9899997711,0.238000005484,87.0,7.46000003815,7.36999988556,11.1000003815,12.4399995804
"2003-08-02 09:00:00",23.0100002289,0.270999997854,87.3000030518,7.48000001907,7.38000011444,9.60000038147,12.4899997711
"2003-08-02 10:00:00",23.0200004578,0.324000000954,88.3000030518,7.55999994278,7.46999979019,8.89999961853,12.470000267
"2003-08-02 11:00:00",23.0400009155,0.32800000906,89.0999984741,7.63000011444,7.48999977112,9.5,12.4899997711
"2003-08-02 12:00:00",23.2999992371,0.335000008345,91.0999984741,7.76000022888,7.51999998093,9.60000038147,13.0699996948
"2003-08-02 13:00:00",23.4599990845,0.345999985933,93.0,7.90000009537,7.53000020981,10.6999998093,12.720000267
"2003-08-02 14:00:00",23.5799999237,0.331999987364,92.9000015259,7.88000011444,7.55000019073,12.3000001907,12.6700000763
"2003-08-02 15:00:00",23.4099998474,0.301999986172,90.5999984741,7.69999980927,7.57999992371,23.7999992371,12.6000003815
"2003-08-02 16:00:00",23.25,0.284000009298,89.5999984741,7.63999986649,7.53999996185,30.8999996185,12.6400003433
"2003-08-02 17:00:00",23.2099990845,0.34999999404,91.9000015259,7.84999990463,7.57999992371,18.1000003815,12.6499996185
"2003-08-02 18:00:00",23.2999992371,0.437000006437,91.4000015259,7.78999996185,7.67000007629,17.1000003815,12.6300001144
"2003-08-02 19:00:00",23.3299999237,0.393999993801,90.5999984741,7.71999979019,7.65999984741,17.6000003815,12.5799999237
"2003-08-02 20:00:00",23.2800006866,0.337999999523,89.6999969482,7.65000009537,7.61000013351,16.0,12.5399999619
"2003-08-02 21:00:00",23.1900005341,0.300999999046,87.0,7.42999982834,7.55000019073,15.3999996185,12.529999733
"2003-08-02 22:00:00",23.1100006104,0.270000010729,84.4000015259,7.21999979019,7.48999977112,22.7000007629,12.5100002289
"2003-08-02 23:00:00",23.0100002289,0.256999999285,83.5,7.15999984741,7.44000005722,27.5,12.4899997711
"2003-08-03 00:00:00",22.8799991608,0.261000007391,83.5999984741,7.17999982834,7.40999984741,25.6000003815,12.470000267
"2003-08-03 01:00:00",22.8099994659,0.266999989748,83.0,7.13999986649,7.38999986649,23.0,12.4300003052
"2003-08-03 02:00:00",22.7099990845,0.282999992371,82.5999984741,7.11999988556,7.40000009537,18.8999996185,12.4099998474
"2003-08-03 03:00:00",22.5799999237,0.331000000238,84.6999969482,7.32000017166,7.46999979019,9.60000038147,12.3999996185
"2003-08-03 04:00:00",22.5300006866,0.344999998808,84.0999984741,7.26999998093,7.44999980927,9.5,12.3900003433
"2003-08-03 05:00:00",22.4699993134,0.384999990463,84.5,7.32000017166,7.46999979019,8.69999980927,12.3800001144
"2003-08-03 06:00:00",22.4400005341,0.405999988317,85.6999969482,7.42000007629,7.53000020981,7.5,12.3800001144
"2003-08-03 07:00:00",22.4200000763,0.398000001907,88.1999969482,7.63999986649,7.57999992371,7.0,12.3800001144
"2003-08-03 08:00:00",22.4300003052,0.372000008821,88.6999969482,7.69000005722,7.59999990463,6.59999990463,12.3800001144
"2003-08-03 09:00:00",22.4300003052,0.338999986649,89.6999969482,7.76999998093,7.57999992371,6.0,12.3999996185
"2003-08-03 10:00:00",22.5300006866,0.321000009775,91.3000030518,7.90000009537,7.57000017166,5.90000009537,12.6599998474
"2003-08-03 11:00:00",22.7399997711,0.319999992847,94.0,8.10000038147,7.57000017166,5.59999990463,12.9099998474
"2003-08-03 12:00:00",23.0499992371,0.345999985933,95.8000030518,8.19999980927,7.59999990463,5.69999980927,12.75
"2003-08-03 13:00:00",23.7900009155,0.389999985695,97.8000030518,8.26000022888,7.61999988556,5.90000009537,13.0
"2003-08-03 14:00:00",24.1399993896,0.393000006676,98.5,8.26000022888,7.65999984741,5.09999990463,12.9799995422
"2003-08-03 15:00:00",24.5699996948,0.377000004053,98.3000030518,8.18000030518,7.69000005722,4.80000019073,12.9799995422
"2003-08-03 16:00:00",24.6399993896,0.361999988556,97.3000030518,8.07999992371,7.65000009537,4.80000019073,12.779999733
"2003-08-03 17:00:00",24.6200008392,0.340000003576,95.4000015259,7.92999982834,7.65000009537,5.0,12.720000267
"2003-08-03 18:00:00",24.4200000763,0.326000005007,92.8000030518,7.75,7.65000009537,5.5,12.6300001144
"2003-08-03 19:00:00",24.2199993134,0.317999988794,90.1999969482,7.55000019073,7.65000009537,4.90000009537,12.6000003815
"2003-08-03 20:00:00",24.0799999237,0.314999997616,88.6999969482,7.44999980927,7.63000011444,4.80000019073,12.5799999237
"2003-08-03 21:00:00",23.8700008392,0.354000002146,89.0,7.5,7.65000009537,6.0,12.5600004196
"2003-08-03 22:00:00",23.7600002289,0.397000014782,87.8000030518,7.42000007629,7.67999982834,5.19999980927,12.5500001907
"2003-08-03 23:00:00",23.6499996185,0.409999996424,88.0999984741,7.46000003815,7.67000007629,4.59999990463,12.5500001907
"2003-08-04 00:00:00",23.5400009155,0.397000014782,88.5999984741,7.51000022888,7.65999984741,5.0,12.529999733
"2003-08-04 01:00:00",23.3999996185,0.34999999404,89.0999984741,7.57999992371,7.65999984741,4.69999980927,12.529999733
"2003-08-04 02:00:00",23.3199996948,0.340000003576,88.5999984741,7.55000019073,7.65999984741,4.30000019073,12.5100002289
"2003-08-04 03:00:00",23.2199993134,0.330000013113,89.3000030518,7.61999988556,7.65999984741,4.19999980927,12.5100002289
"2003-08-04 04:00:00",23.1100006104,0.319000005722,89.9000015259,7.69000005722,7.65000009537,3.90000009537,12.4899997711
"2003-08-04 05:00:00",22.9899997711,0.312999993563,88.5,7.59000015259,7.61999988556,4.19999980927,12.4799995422
"2003-08-04 06:00:00",22.8500003815,0.310000002384,88.0999984741,7.57000017166,7.59000015259,4.59999990463,12.470000267
"2003-08-04 07:00:00",22.7299995422,0.312000006437,88.0999984741,7.59000015259,7.57999992371,4.80000019073,12.4499998093
"2003-08-04 08:00:00",22.6700000763,0.324999988079,92.0,7.94000005722,7.63999986649,4.30000019073,12.4499998093
"2003-08-04 09:00:00",22.6900005341,0.384999990463,91.9000015259,7.92000007629,7.69000005722,4.19999980927,12.4399995804
"2003-08-04 10:00:00",22.7600002289,0.409999996424,93.6999969482,8.06999969482,7.71000003815,10.3000001907,12.8199996948
"2003-08-04 11:00:00",23.9300003052,1.59899997711,90.5999984741,7.59999990463,7.59999990463,84.0,12.9899997711
"2003-08-04 12:00:00",24.9400005341,1.97500002384,91.0999984741,7.5,7.76000022888,60.7000007629,13.0
"2003-08-04 13:00:00",25.1700000763,1.89400005341,93.3000030518,7.65000009537,7.84000015259,14.5,13.0600004196
"2003-08-04 14:00:00",25.5200004578,1.90100002289,94.3000030518,7.67000007629,7.86999988556,7.59999990463,13.0500001907
"2003-08-04 15:00:00",25.7099990845,1.91400003433,94.3000030518,7.65000009537,7.90000009537,7.30000019073,12.8199996948
"2003-08-04 16:00:00",25.7000007629,1.89600002766,90.6999969482,7.36000013351,7.92999982834,5.0,12.75
"2003-08-04 17:00:00",25.7800006866,1.99199998379,90.1999969482,7.30999994278,7.90000009537,4.59999990463,12.6899995804
"2003-08-04 18:00:00",25.7600002289,2.02600002289,86.3000030518,6.98999977112,7.84999990463,4.59999990463,12.6499996185
"2003-08-04 19:00:00",25.6900005341,2.02300000191,88.8000030518,7.21000003815,7.84000015259,4.40000009537,12.6000003815
"2003-08-04 20:00:00",25.6000003815,2.03399991989,88.8000030518,7.21999979019,7.84000015259,3.59999990463,12.5900001526
"2003-08-04 21:00:00",25.4699993134,2.04099988937,88.3000030518,7.19000005722,7.84000015259,3.09999990463,12.5799999237
"2003-08-04 22:00:00",25.3600006104,2.04999995232,87.9000015259,7.17999982834,7.84999990463,3.09999990463,12.5699996948
"2003-08-04 23:00:00",25.2299995422,2.02999997139,85.5999984741,7.0,7.82999992371,2.79999995232,12.5500001907
"2003-08-05 00:00:00",24.5599994659,1.76600003242,84.0,6.96000003815,7.80000019073,10.8000001907,12.5500001907
"2003-08-05 01:00:00",23.5300006866,0.0790000036359,94.6999969482,8.03999996185,8.11999988556,162.300003052,12.5200004578
"2003-08-05 02:00:00",23.1000003815,0.0900000035763,91.5,7.82999992371,7.71000003815,87.9000015259,12.5100002289
"2003-08-05 03:00:00",22.9300003052,0.108000002801,90.0999984741,7.73999977112,7.48999977112,96.3000030518,12.4899997711
"2003-08-05 04:00:00",22.7800006866,0.134000003338,91.0999984741,7.84999990463,7.36999988556,78.0999984741,12.470000267
"2003-08-05 05:00:00",22.6000003815,0.16400000453,89.1999969482,7.71000003815,7.34999990463,60.5,12.4600000381
"2003-08-05 06:00:00",22.4200000763,0.216999992728,88.3000030518,7.65000009537,7.36999988556,44.2999992371,12.4499998093
"2003-08-05 07:00:00",22.2700004578,0.246000006795,86.0,7.48000001907,7.38999986649,31.5,12.4300003052
"2003-08-05 08:00:00",22.1700000763,0.268000006676,84.9000015259,7.38999986649,7.40000009537,26.1000003815,12.4200000763
"2003-08-05 09:00:00",22.1299991608,0.294999986887,91.0,7.92999982834,7.46000003815,31.2000007629,12.5399999619
"2003-08-05 10:00:00",22.8999996185,1.35099995136,91.5999984741,7.84999990463,7.51999998093,6.80000019073,12.9600000381
"2003-08-05 11:00:00",24.0799999237,1.77400004864,93.1999969482,7.80000019073,7.73999977112,4.69999980927,13.1099996567
"2003-08-05 12:00:00",24.3199996948,1.5759999752,92.3000030518,7.69000005722,7.84999990463,13.5,12.8400001526
"2003-08-05 13:00:00",24.6499996185,1.6210000515,93.1999969482,7.71000003815,7.86999988556,6.59999990463,13.0799999237
"2003-08-05 14:00:00",24.9599990845,1.66999995708,93.6999969482,7.71000003815,7.90000009537,5.0,13.0600004196
"2003-08-05 15:00:00",25.0900001526,1.69299995899,89.9000015259,7.38000011444,7.88999986649,2.09999990463,13.029999733
"2003-08-05 16:00:00",25.2999992371,1.67299997807,89.8000030518,7.34999990463,7.78999996185,2.90000009537,12.7899999619
"2003-08-05 17:00:00",25.2399997711,1.6590000391,89.4000015259,7.32000017166,7.73000001907,2.09999990463,12.7100000381
"2003-08-05 18:00:00",24.8799991608,1.45000004768,86.6999969482,7.15000009537,7.78999996185,1.79999995232,12.6499996185
"2003-08-05 19:00:00",24.6299991608,1.09899997711,86.0999984741,7.15000009537,7.76999998093,5.5,12.6099996567
"2003-08-05 20:00:00",24.4599990845,0.949000000954,84.5999984741,7.03999996185,7.71999979019,6.69999980927,12.5900001526
"2003-08-05 21:00:00",23.6000003815,0.0659999996424,97.5999984741,8.27000045776,8.10000038147,522.0,12.5699996948
"2003-08-05 22:00:00",23.0900001526,0.0989999994636,89.9000015259,7.69999980927,7.73999977112,243.100006104,12.5500001907
"2003-08-05 23:00:00",22.9200000763,0.15000000596,89.4000015259,7.67999982834,7.44000005722,185.600006104,12.5399999619
"2003-08-06 00:00:00",22.75,0.181999996305,87.3000030518,7.51999998093,7.32999992371,146.399993896,12.529999733
"2003-08-06 01:00:00",22.5900001526,0.215000003576,86.9000015259,7.51000022888,7.28999996185,144.300003052,12.5200004578
"2003-08-06 02:00:00",22.3999996185,0.252000004053,85.9000015259,7.44999980927,7.28999996185,116.800003052,12.5100002289
"2003-08-06 03:00:00",22.2299995422,0.296000003815,87.0999984741,7.57000017166,7.30000019073,100.0,12.5
"2003-08-06 04:00:00",22.0900001526,0.338999986649,87.5999984741,7.63999986649,7.34999990463,92.9000015259,12.4899997711
"2003-08-06 05:00:00",21.9500007629,0.409000009298,88.3000030518,7.71999979019,7.40000009537,68.5999984741,12.470000267
"2003-08-06 06:00:00",21.8299999237,0.463999986649,88.4000015259,7.75,7.46999979019,51.2000007629,12.4499998093
"2003-08-06 07:00:00",21.7199993134,0.5,89.4000015259,7.84999990463,7.53999996185,40.0,12.4300003052
"2003-08-06 08:00:00",21.7199993134,0.52999997139,89.9000015259,7.88999986649,7.59000015259,31.3999996185,12.4399995804
"2003-08-06 09:00:00",21.8199996948,0.521000027657,91.8000030518,8.05000019073,7.63000011444,21.8999996185,12.5100002289
"2003-08-06 10:00:00",21.9500007629,0.550000011921,92.0,8.03999996185,7.63999986649,15.3000001907,12.6899995804
"2003-08-06 11:00:00",22.2000007629,0.518000006676,94.4000015259,8.21000003815,7.67999982834,11.6999998093,13.1499996185
"2003-08-06 12:00:00",22.5799999237,0.432999998331,95.5,8.25,7.69999980927,11.5,12.8599996567
"2003-08-06 13:00:00",22.9500007629,0.470999985933,95.8000030518,8.21000003815,7.69999980927,10.6999998093,13.0799999237
"2003-08-06 14:00:00",23.3899993896,0.550000011921,95.0,8.07999992371,7.71000003815,16.6000003815,13.0600004196
"2003-08-06 15:00:00",23.9799995422,0.57800000906,97.3000030518,8.18000030518,7.71000003815,24.2000007629,12.8599996567
"2003-08-06 16:00:00",23.9799995422,0.578999996185,94.3000030518,7.92999982834,7.71000003815,28.1000003815,12.6899995804
"2003-08-06 17:00:00",24.0100002289,0.561999976635,93.1999969482,7.82999992371,7.69999980927,28.7999992371,12.7100000381
"2003-08-06 18:00:00",23.8700008392,0.547999978065,90.9000015259,7.65999984741,7.67000007629,22.1000003815,12.6300001144
"2003-08-06 19:00:00",23.7900009155,0.535000026226,89.8000030518,7.57999992371,7.63999986649,15.8000001907,12.6099996567
"2003-08-06 20:00:00",23.6700000763,0.497000008821,89.1999969482,7.55000019073,7.63000011444,11.1000003815,12.5900001526
"2003-08-06 21:00:00",23.5499992371,0.449000000954,87.8000030518,7.44999980927,7.59999990463,9.89999961853,12.5799999237
"2003-08-06 22:00:00",23.4500007629,0.418000012636,86.9000015259,7.38000011444,7.57999992371,9.89999961853,12.5699996948
"2003-08-06 23:00:00",23.3299999237,0.407999992371,86.0999984741,7.32999992371,7.57000017166,9.80000019073,12.5500001907
"2003-08-07 00:00:00",23.1900005341,0.423999994993,86.0,7.34999990463,7.57000017166,9.80000019073,12.5500001907
"2003-08-07 01:00:00",23.0799999237,0.444999992847,85.9000015259,7.34999990463,7.57999992371,9.39999961853,12.529999733
"2003-08-07 02:00:00",22.9899997711,0.446999996901,86.8000030518,7.44000005722,7.59999990463,9.19999980927,12.5100002289
"2003-08-07 03:00:00",22.8999996185,0.456000000238,86.3000030518,7.40999984741,7.59999990463,8.30000019073,12.5
"2003-08-07 04:00:00",22.8299999237,0.444000005722,87.1999969482,7.48999977112,7.61000013351,7.59999990463,12.4799995422
"2003-08-07 05:00:00",22.7099990845,0.377999991179,86.5,7.44999980927,7.59000015259,8.60000038147,12.4600000381
"2003-08-07 06:00:00",22.6399993896,0.319999992847,89.5,7.71999979019,7.59999990463,25.1000003815,12.4399995804
"2003-08-07 07:00:00",22.7199993134,0.25,85.4000015259,7.36000013351,7.5,20.7999992371,12.4300003052
"2003-08-07 08:00:00",22.6800003052,0.254000008106,85.0,7.32999992371,7.46999979019,15.3999996185,12.4200000763
"2003-08-07 09:00:00",22.6900005341,0.259999990463,83.3000030518,7.17999982834,7.42999982834,13.1000003815,12.4200000763
"2003-08-07 10:00:00",22.7600002289,0.264999985695,82.0999984741,7.07000017166,7.38000011444,12.8000001907,12.5600004196
"2003-08-07 11:00:00",22.8999996185,0.273999989033,84.1999969482,7.23000001907,7.36000013351,12.8000001907,13.1199998856
"2003-08-07 12:00:00",23.0200004578,0.287000000477,81.5,6.98000001907,7.36000013351,14.0,12.8500003815
"2003-08-07 13:00:00",23.2399997711,0.29699999094,90.1999969482,7.69999980927,7.40000009537,14.5,13.0399999619
"2003-08-07 14:00:00",23.4599990845,0.296000003815,91.6999969482,7.78999996185,7.42999982834,13.1999998093,12.7600002289
"2003-08-07 15:00:00",23.6499996185,0.291000008583,92.8000030518,7.86000013351,7.46999979019,10.6000003815,13.0699996948
"2003-08-07 16:00:00",23.9500007629,0.287999987602,94.8000030518,7.98000001907,7.48999977112,7.90000009537,12.7299995422
"2003-08-07 17:00:00",23.8199996948,0.287999987602,92.6999969482,7.82999992371,7.51000022888,6.30000019073,12.7100000381
"2003-08-07 18:00:00",23.7399997711,0.300000011921,90.9000015259,7.67999982834,7.5,5.40000009537,12.6300001144
"2003-08-07 19:00:00",23.6100006104,0.335000008345,89.0999984741,7.55000019073,7.5,4.30000019073,12.6000003815
"2003-08-07 20:00:00",23.4899997711,0.377000004053,84.3000030518,7.15999984741,7.48999977112,4.30000019073,12.5900001526
"2003-08-07 21:00:00",23.3799991608,0.397000014782,86.5,7.36000013351,7.53999996185,4.69999980927,12.5699996948
"2003-08-07 22:00:00",23.2600002289,0.402999997139,86.6999969482,7.38999986649,7.57000017166,5.40000009537,12.5600004196
"2003-08-07 23:00:00",23.1100006104,0.395000010729,87.0,7.44000005722,7.57999992371,3.29999995232,12.5500001907
"2003-08-08 00:00:00",22.9899997711,0.377000004053,86.8000030518,7.44000005722,7.59000015259,3.29999995232,12.529999733
"2003-08-08 01:00:00",22.8799991608,0.354999989271,87.0999984741,7.48000001907,7.57000017166,3.29999995232,12.5100002289
"2003-08-08 02:00:00",23.8500003815,0.0909999981523,99.1999969482,8.36999988556,7.67999982834,571.5,12.5
"2003-08-08 03:00:00",23.1700000763,0.0670000016689,92.6999969482,7.92000007629,7.46999979019,293.100006104,12.4799995422
"2003-08-08 04:00:00",23.0699996948,0.105999998748,81.5,6.98000001907,7.19000005722,220.300003052,12.4600000381
"2003-08-08 05:00:00",22.9099998474,0.140000000596,88.5999984741,7.61000013351,7.11999988556,239.0,12.4399995804
"2003-08-08 06:00:00",22.7700004578,0.16400000453,88.1999969482,7.59999990463,7.15999984741,209.300003052,12.4099998474
"2003-08-08 07:00:00",22.6299991608,0.182999998331,88.1999969482,7.61999988556,7.21999979019,165.699996948,12.4099998474
"2003-08-08 08:00:00",22.5200004578,0.20000000298,88.1999969482,7.63000011444,7.26999998093,135.800003052,12.3999996185
"2003-08-08 09:00:00",22.5300006866,0.216000005603,90.0,7.78999996185,7.34000015259,108.099998474,12.4799995422
"2003-08-08 10:00:00",22.9099998474,0.234999999404,92.9000015259,7.98000001907,7.36999988556,138.199996948,12.3999996185
"2003-08-08 11:00:00",23.6200008392,0.0590000003576,95.5999984741,8.10999965668,7.32999992371,198.199996948,12.3900003433
"2003-08-08 12:00:00",23.7600002289,0.070000000298,94.5,7.98999977112,7.21999979019,169.100006104,12.6000003815
"2003-08-08 13:00:00",24.0499992371,0.0900000035763,92.9000015259,7.80999994278,7.15000009537,147.300003052,13.0900001526
"2003-08-08 14:00:00",24.2099990845,0.125,93.0,7.80000019073,7.15000009537,147.600006104,13.0500001907
"2003-08-08 15:00:00",24.3700008392,0.162000000477,92.9000015259,7.76999998093,7.25,144.699996948,13.0500001907
"2003-08-08 16:00:00",24.4599990845,0.225999996066,91.8000030518,7.65999984741,7.34000015259,121.5,12.8599996567
"2003-08-08 17:00:00",24.4500007629,0.272000014782,90.3000030518,7.53000020981,7.40999984741,93.6999969482,12.6700000763
"2003-08-08 18:00:00",24.3600006104,0.287000000477,89.5999984741,7.48999977112,7.46000003815,73.8000030518,12.6300001144
"2003-08-08 19:00:00",24.2900009155,0.296000003815,89.8000030518,7.51000022888,7.48000001907,56.4000015259,12.6099996567
"2003-08-08 20:00:00",24.1200008392,0.298000007868,89.0,7.46999979019,7.51000022888,48.7999992371,12.5900001526
"2003-08-08 21:00:00",23.9200000763,0.289999991655,89.1999969482,7.51999998093,7.51999998093,41.2000007629,12.5799999237
"2003-08-08 22:00:00",23.6499996185,0.275999993086,88.3000030518,7.48000001907,7.48999977112,43.2999992371,12.5600004196
"2003-08-08 23:00:00",23.9200000763,0.186000004411,88.9000015259,7.48999977112,7.40999984741,39.9000015259,12.5500001907
"2003-08-09 00:00:00",23.7700004578,0.143999993801,88.3000030518,7.46999979019,7.34999990463,45.7000007629,12.5399999619
"2003-08-09 01:00:00",23.6200008392,0.143000006676,86.8000030518,7.36000013351,7.26000022888,43.2000007629,12.5200004578
"2003-08-09 02:00:00",23.4400005341,0.187000006437,86.3000030518,7.34000015259,7.26000022888,32.5,12.5100002289
"2003-08-09 03:00:00",23.2600002289,0.24699999392,87.1999969482,7.44000005722,7.30999994278,27.7000007629,12.4899997711
"2003-08-09 04:00:00",23.1299991608,0.254000008106,87.6999969482,7.5,7.36000013351,23.7000007629,12.4799995422
"2003-08-09 05:00:00",23.0,0.263000011444,88.4000015259,7.57999992371,7.38999986649,20.0,12.470000267
"2003-08-09 06:00:00",22.8899993896,0.27500000596,89.4000015259,7.67999982834,7.44000005722,15.5,12.4499998093
"2003-08-09 07:00:00",22.8099994659,0.273000001907,90.0,7.75,7.46999979019,38.7999992371,12.4300003052
"2003-08-09 08:00:00",22.7700004578,0.270000010729,90.8000030518,7.82000017166,7.5,82.6999969482,12.4099998474
"2003-08-09 09:00:00",22.8400001526,0.270000010729,92.5,7.94999980927,7.53000020981,119.300003052,12.4899997711
"2003-08-09 10:00:00",22.9899997711,0.29699999094,93.0,7.96999979019,7.57999992371,96.3000030518,12.779999733